AO-07 1 07530U 74089B 17109.90036458 -.00000018 00000-0 16671-3 0 9990 2 07530 101.6248 079.7471 0012495 075.5465 342.0680 12.53626538941555 UO-11 1 14781U 84021B 17109.93484592 .00000116 00000-0 20562-4 0 9995 2 14781 097.7042 157.7743 0009351 039.2222 320.9668 14.82881412760718 LO-19 1 20442U 90005G 17109.76577418 .00000029 00000-0 26607-4 0 9995 2 20442 098.5721 046.8848 0011120 325.5305 034.5157 14.32855962423191 HUBBLE 1 20580U 90037B 17109.21943700 .00000653 00000-0 29360-4 0 9996 2 20580 028.4706 037.1570 0002548 256.8635 234.2116 15.08734755281286 MET-2/21 1 22782U 93055A 17109.95960512 .00000068 00000-0 48063-4 0 9997 2 22782 082.5490 069.7913 0021251 232.4252 186.2396 13.83798694193373 AO-27 1 22825U 93061C 17109.83773385 .00000016 00000-0 23733-4 0 9999 2 22825 098.8063 074.7213 0009111 136.3444 223.8460 14.29992652228798 IO-26 1 22826U 93061D 17109.88218082 .00000024 00000-0 26752-4 0 9996 2 22826 098.8006 074.8551 0009767 127.7357 232.4711 14.30320969229240 FO-29 1 24278U 96046B 17109.67427420 -.00000054 00000-0 -21026-4 0 9994 2 24278 098.5724 000.6979 0351163 128.8976 234.4039 13.53075649020719 NOAA-15 1 25338U 98030A 17109.89868158 .00000048 00000-0 39071-4 0 9998 2 25338 098.7842 120.6877 0010911 022.2289 337.9361 14.25786917984439 GO-32 1 25397U 98043D 17109.85980258 .00000003 00000-0 20295-4 0 9998 2 25397 098.6053 053.4412 0001815 131.2918 228.8417 14.23619727975272 ISS 1 25544U 98067A 17109.92096824 .00002787 00000-0 49344-4 0 9990 2 25544 051.6434 328.7262 0007243 075.4107 032.5712 15.54131334052697 NO-44 1 26931U 01043C 17109.79573266 .00000006 00000-0 34279-4 0 9997 2 26931 067.0512 241.8515 0007815 274.1151 085.9057 14.30455883811928 SO-50 1 27607U 02058C 17109.91105513 .00000099 00000-0 34958-4 0 9991 2 27607 064.5550 303.6410 0032457 125.5172 234.8965 14.75309545770385 CO-55 1 27844U 03031E 17109.95665934 .00000079 00000-0 55336-4 0 9999 2 27844 098.6912 119.8073 0010347 149.9849 210.1924 14.22029238716006 CO-57 1 27848U 03031J 17109.79990545 .00000064 00000-0 49213-4 0 9995 2 27848 098.7006 119.8866 0010080 159.0553 201.1039 14.21644813715875 RS-22 1 27939U 03042A 17109.91961075 .00000214 00000-0 46984-4 0 9997 2 27939 097.9299 256.5687 0014089 055.2932 059.8605 14.66548526724636 NOAA-18 1 28654U 05018A 17109.89178624 .00000017 00000-0 34823-4 0 9994 2 28654 099.1869 130.6692 0013523 232.4799 127.5143 14.12333136613938 CO-58 1 28895U 05043F 17109.71231189 .00000232 00000-0 53473-4 0 9997 2 28895 097.8583 274.7214 0016066 333.0515 026.9852 14.63373902611705 Falconsat-3 1 30776U 07006E 17109.32144478 .00003421 00000-0 11003-3 0 9995 2 30776 035.4356 079.9736 0003046 171.8168 188.2608 15.31891596559221 CO-65 1 32785U 08021C 17109.53196090 .00000388 00000-0 48069-4 0 9997 2 32785 097.5717 136.4685 0013281 010.0136 350.1344 14.87846794486109 AAUSAT2 1 32788U 08021F 17109.62321726 .00000511 00000-0 53333-4 0 9994 2 32788 097.5651 147.7981 0011082 333.6060 026.4595 14.93786092486832 DO-64 1 32789U 08021G 17109.90659869 .00002427 00000-0 17676-3 0 9995 2 32789 097.5650 169.3556 0011440 302.5670 057.4451 15.04655759488004 CO-66 1 32791U 08021J 17109.02039552 .00000543 00000-0 61479-4 0 9990 2 32791 097.5691 140.1600 0013224 357.1774 002.9368 14.90161441486253 RS-30 1 32953U 08025A 17109.93187330 .00000054 00000-0 31569-3 0 9995 2 32953 082.4996 275.8784 0019472 054.8793 305.4109 12.43075921404185 PRISM 1 33493U 09002B 17109.82456435 .00001320 00000-0 12454-3 0 9993 2 33493 098.1765 349.7727 0013890 276.9720 082.9931 14.95578442447054 NOAA-19 1 33591U 09005A 17109.88721390 .00000124 00000-0 92444-4 0 9995 2 33591 099.0869 075.9031 0015049 077.0104 283.2747 14.12171930422164 TISAT-1 1 36799U 10035E 17109.86746914 .00000729 00000-0 81027-4 0 9996 2 36799 098.0533 231.4445 0013230 153.3765 206.8134 14.90319921367094 JUGNU 1 37839U 11058B 17109.31722017 .00000307 00000-0 22022-4 0 9998 2 37839 019.9611 087.4293 0018739 254.2373 248.8097 14.12579018285254 SRMSAT 1 37841U 11058D 17109.36157722 .00000304 00000-0 21657-4 0 9991 2 37841 019.9709 127.6345 0011896 154.0309 322.8292 14.10571072284870 AO-71 1 37854U 11061E 17109.77418645 .00002373 00000-0 13470-3 0 9999 2 37854 101.7109 313.6770 0168195 247.8356 110.4932 15.03842115298155 HRBE 1 37855U 11061F 17109.81019908 .00001542 00000-0 89084-4 0 9996 2 37855 101.7242 311.5732 0181224 253.8571 104.2625 15.02799418297552 ALMASAT-1 1 38078U 12006B 17109.95091413 .00025050 36983-5 29329-3 0 9999 2 38078 069.4383 288.8017 0317721 016.0927 345.0048 15.19714656275936 HORYU-2 1 38340U 12025D 17109.89568732 .00000344 00000-0 58817-4 0 9998 2 38340 098.3765 111.7656 0012901 114.6579 245.5974 14.75299279254283 RS-40 1 38735U 12041C 17109.83507205 .00000005 00000-0 -32777-4 0 9998 2 38735 082.4796 000.5762 0016903 152.1895 208.0091 12.42573678214455 BEESAT-3 1 39134U 13015E 17109.90126985 .00002682 00000-0 14097-3 0 9990 2 39134 064.8691 054.5612 0033307 284.1252 075.6173 15.17573614220259 BEESAT-2 1 39136U 13015G 17109.95454612 .00002031 00000-0 11782-3 0 9994 2 39136 064.8716 064.2782 0030381 290.9818 068.8057 15.14902962220060 ZACUBE-1 1 39417U 13066B 17109.70584105 .00000363 00000-0 52241-4 0 9998 2 39417 097.6362 154.7643 0060973 101.1323 259.6753 14.80667800184128 TRITON-1 1 39427U 13066M 17109.95844633 .00000275 00000-0 51959-4 0 9998 2 39427 097.6415 129.2094 0114632 174.5297 185.7192 14.67422033182318 GOMX-1 1 39430U 13066Q 17109.59733933 .00000256 00000-0 55842-4 0 9996 2 39430 097.6649 113.1039 0150844 227.6994 131.1342 14.58833196181385 LO-74 1 39440U 13066AA 17109.65010839 .00000344 00000-0 54994-4 0 9992 2 39440 097.6348 144.3521 0082131 129.6748 231.1744 14.75409400182266 AO-73 1 39444U 13066AE 17109.71423555 .00000470 00000-0 64697-4 0 9997 2 39444 097.6376 155.7514 0060167 098.1711 262.6333 14.81390217182360 SPROUT 1 39770U 14029E 17109.85792317 .00001047 00000-0 12561-3 0 9992 2 39770 097.8691 209.8146 0009986 150.8147 209.3628 14.86116565157473 DUCHIFAT-1 1 40021U 14033M 17109.86772383 .00000568 00000-0 65009-4 0 9993 2 40021 097.9211 022.9431 0014164 128.8253 231.4231 14.89812524153913 NANOSATCBR1 1 40024U 14033Q 17109.70919681 .00000595 00000-0 68946-4 0 9996 2 40024 097.9173 021.7626 0013384 130.0948 230.1444 14.89148423153849 EO-79 1 40025U 14033R 17109.79213315 .00000430 00000-0 52453-4 0 9991 2 40025 097.9157 020.9722 0013586 132.4376 227.7992 14.88365226153802 DTUSAT-2 1 40030U 14033W 17109.71536280 .00000434 00000-0 53296-4 0 9998 2 40030 097.9124 020.0682 0013112 127.2937 232.9477 14.87989691153249 EO-80 1 40032U 14033Y 17109.88951414 .00000428 00000-0 52768-4 0 9994 2 40032 097.9132 020.2488 0013079 127.0998 233.1416 14.87924492153258 ANTELSAT 1 40034U 14033AA 17109.75530982 .00000338 00000-0 58068-4 0 9994 2 40034 097.8673 355.4733 0060301 120.0423 240.6786 14.73654714151782 VELOX-1 1 40057U 14034E 17109.83734079 .00000376 00000-0 60811-4 0 9993 2 40057 098.1851 209.1902 0009757 240.6597 119.3639 14.77064401151142 DAURIA DX 1 1 40071U 14037C 17109.89257482 .00000185 00000-0 31351-4 0 9991 2 40071 098.3314 218.6661 0007208 236.5549 123.4974 14.80990382150340 UKUBE-1 1 40074U 14037F 17109.88117426 .00000412 00000-0 57300-4 0 9991 2 40074 098.3398 222.2042 0003523 228.4026 131.6898 14.83442385150530 HODOYOSHI-1 1 40299U 14070B 17109.87773796 .00000921 00000-0 43186-4 0 9996 2 40299 097.4038 193.5017 0011949 301.9281 121.8078 15.22134143136071 CHUBUSAT-1 1 40300U 14070C 17109.86176167 .00001017 00000-0 49201-4 0 9998 2 40300 097.3972 190.8216 0019421 309.5140 153.8248 15.20722619135928 QSAT-EOS 1 40301U 14070D 17109.86486826 .00002084 00000-0 91107-4 0 9992 2 40301 097.3903 190.7255 0026491 304.6991 189.5239 15.22905743135952 FIREBIRD FU3 1 40377U 15003B 17109.76472358 .00005655 00000-0 24367-3 0 9996 2 40377 099.1201 282.0963 0137174 195.4949 164.2059 15.14960912122155 FIREBIRD FU4 1 40378U 15003C 17109.75778261 .00005806 00000-0 24970-3 0 9996 2 40378 099.1204 282.1210 0137377 195.4315 164.2704 15.14980764122162 GRIFEX 1 40379U 15003D 17109.78178206 .00003312 00000-0 15256-3 0 9990 2 40379 099.1215 280.1753 0142755 202.2056 157.2949 15.12635854122056 NO-84 1 40654U 15025D 17109.36623977 .00006738 00000-0 12985-3 0 04248 2 40654 054.9921 139.3186 0187595 117.5336 244.4957 15.32447094070879 NO-83 1 40655U 15025E 17109.29265930 .00012599 00000-0 19706-3 0 04714 2 40655 054.9789 118.9965 0157787 128.6141 232.9169 15.41318993071139 DEORBITSAIL 1 40719U 15032E 17109.75396969 .00000611 00000-0 96150-4 0 9997 2 40719 097.9868 004.2238 0016175 336.5851 023.4620 14.75987236095700 NUDT-PHONESAT 1 40900U 15049B 17109.94776984 .00003672 00000-0 17798-3 0 9997 2 40900 097.4447 118.7079 0016006 071.8036 288.4939 15.19042524087619 XW-2A 1 40903U 15049E 17109.91350344 .00003172 00000-0 85617-4 0 9996 2 40903 097.4266 134.8953 0016772 112.8999 247.4019 15.38415035088689 XW-2C 1 40906U 15049H 17109.96598497 .00001206 00000-0 69060-4 0 9997 2 40906 097.4557 116.6235 0016838 059.7072 300.5823 15.14408727087429 XW-2D 1 40907U 15049J 17109.95319658 .00001275 00000-0 72607-4 0 9994 2 40907 097.4526 116.3884 0016174 058.2559 302.0246 15.14503203087421 LILACSAT-2 1 40908U 15049K 17109.95889542 .00000758 00000-0 46391-4 0 9995 2 40908 097.4628 116.2234 0017636 055.7285 304.5613 15.13040788087366 XW-2F 1 40910U 15049M 17109.92218407 .00001847 00000-0 10124-3 0 9995 2 40910 097.4549 116.9502 0017024 056.3569 303.9285 15.15323491087454 XW-2B 1 40911U 15049N 17109.95789413 .00001251 00000-0 71383-4 0 9993 2 40911 097.4570 116.7391 0016077 058.5714 301.7087 15.14468602087321 DCBB 1 40912U 15049P 17109.86864794 .00001852 00000-0 95731-4 0 9990 2 40912 097.4521 118.5692 0017323 049.3661 072.0249 15.17398803087445 TW-1C 1 40926U 15051B 17109.86863522 .00008116 00000-0 19342-3 0 9999 2 40926 097.2366 149.8961 0012997 029.9819 057.1007 15.41754204087930 TW-1A 1 40928U 15051D 17109.91369525 .00004065 00000-0 11929-3 0 9993 2 40928 097.2334 146.7737 0014566 053.3354 068.9877 15.35625842087756 IO-86 1 40931U 15052B 17109.68136492 .00000822 00000-0 25613-4 0 9990 2 40931 005.9992 289.8419 0012322 135.8685 224.2470 14.76523414084303 GomX-3 1 40949U 98067HA 16292.18357804 .08527750 12374-4 77882-3 0 9992 2 40949 51.6055 106.7696 0006699 286.1344 73.8944 16.38002265 59645 LQSat 1 40958U 15057A 17109.89491365 .00000032 00000-0 12738-4 0 9997 2 40958 097.9801 186.2214 0016808 252.2354 107.7008 14.72955828082534 AO-85 1 40967U 15058D 17109.26665956 .00000259 00000-0 49276-4 0 04575 2 40967 064.7785 037.5936 0172500 099.7708 262.2924 14.75374940068424 ATHENOXAT-1 1 41168U 15077C 17109.46404472 .00002700 00000-0 11639-3 0 9991 2 41168 014.9920 238.3564 0012699 285.3983 129.2472 15.11373902074148 ChubuSat-2 1 41338U 16012B 17109.44942119 .00000481 00000-0 31153-4 0 9991 2 41338 031.0024 125.2958 0013969 198.2503 161.7631 14.99698688064169 ChubuSat-3 1 41339U 16012C 17109.45227592 .00000423 00000-0 26378-4 0 9993 2 41339 031.0098 124.5179 0013997 205.7013 154.2927 14.99907209064144 Horyu-4 1 41340U 16012D 17109.38437232 .00000724 00000-0 49192-4 0 9994 2 41340 031.0044 122.8274 0014280 211.6594 148.3183 15.00524604064178 OUFTI-1 1 41458U 16025C 17109.92754021 .00001864 00000-0 10351-3 0 9996 2 41458 098.1893 144.1635 0176310 123.8165 237.9986 15.02852899053832 e-st@r-II 1 41459U 16025D 17109.87611948 .00001813 00000-0 10044-3 0 9994 2 41459 098.1933 144.0741 0178121 124.2837 237.5403 15.02734067053812 AAUSAT4 1 41460U 16025E 17109.83972484 .00004283 00000-0 23267-3 0 9992 2 41460 098.1833 144.0992 0169982 123.3577 238.4039 15.03507322053826 MinXSS 1 41474U 98067HU 17109.73827802 .00306018 48569-4 71516-3 0 9992 2 41474 051.6472 293.8859 0006892 279.9569 080.0662 15.96438057053089 CADRE 1 41475U 98067HV 17003.74787607 .12518598 12537-4 55989-3 0 9998 2 41475 51.6110 110.0165 0004040 312.3134 47.7551 16.43344525 36494 NODES 1 1 41477U 98067HX 17109.78732856 .00065132 00000-0 42046-3 0 9993 2 41477 051.6317 305.4154 0003507 222.8310 137.2416 15.75484120052843 NODES 2 1 41478U 98067HY 17109.81327838 .00066571 00000-0 43583-3 0 9993 2 41478 051.6337 305.5905 0003334 219.7891 140.2864 15.75153441052848 LO-87 1 41557U 16033B 17109.82092873 .00002093 00000-0 82131-4 0 9995 2 41557 097.4654 189.3392 0013665 207.4958 152.5559 15.26808975049523 NuSat2 1 41558U 16033C 17109.78359069 .00002123 00000-0 83556-4 0 9990 2 41558 097.4681 189.3458 0013174 205.9988 154.0590 15.26686232049519 Lapan A3 1 41603U 16040E 17109.88846619 .00000333 00000-0 19004-4 0 9990 2 41603 097.4660 172.5481 0011936 279.7962 166.7450 15.19310337045807 Swayam 1 41607U 16040J 17109.82864186 .00002415 00000-0 11347-3 0 9991 2 41607 097.4658 172.6731 0012768 281.3104 078.6697 15.20516122045736 Pratham 1 41783U 16059A 17109.74617557 .00000098 00000-0 28596-4 0 9995 2 41783 098.1727 171.7057 0033195 346.3755 013.6547 14.62823030030054 AlSat 1N 1 41789U 16059G 17109.85128909 .00000090 00000-0 26406-4 0 9991 2 41789 098.1720 172.1978 0027925 341.1962 018.8191 14.64029604030078 ScatSat 1 41790U 16059H 17109.75049693 .00000032 00000-0 18995-4 0 9994 2 41790 098.0717 162.2509 0010507 333.6762 026.3898 14.50102538029795 TY-1 1 41844U 16066D 17109.89655013 .00001267 00000-0 58535-4 0 9991 2 41844 097.4067 117.9376 0018006 083.1473 010.9938 15.21874641024477 CAS-2T 1 41845U 16066E 17109.86875697 -.00000067 00000-0 00000-0 0 9999 2 41845 098.7807 124.0994 0367948 061.4063 302.3644 14.37725318023119 Pegasus-1 1 41846U 16066F 17109.82263929 -.00000067 00000-0 00000-0 0 9995 2 41846 098.7832 123.8920 0370786 062.5670 301.2781 14.36942002023091 STARS-C 1 41895U 98067KR 17109.79899468 .00030018 00000-0 38671-3 0 9995 2 41895 051.6404 327.3984 0005536 106.1447 254.0155 15.58751599018878 Tancredo 1 1 41931U 98067KT 17109.86190081 .00052089 00000-0 58691-3 0 9995 2 41931 051.6395 326.3112 0006129 069.5695 290.5957 15.61995558014461 ITF-2 1 41932U 98067KU 17109.85588580 .00016634 00000-0 22758-3 0 9991 2 41932 051.6413 327.7805 0006108 060.3108 299.8492 15.57538630014445 AOBA-V3LOX3 1 41935U 98067KX 17109.85496819 .00018693 00000-0 25356-3 0 9991 2 41935 051.6411 327.7732 0005547 065.6383 294.5187 15.57678773014541 OSNSAT 1 41939U 98067KZ 17109.84725302 .00038473 00000-0 46963-3 0 9991 2 41939 051.6399 326.9674 0006966 065.0500 295.1216 15.60039674013811 EO-88 1 42017U 17008BX 17109.82293381 .00002723 00000-0 11982-3 0 9992 2 42017 097.5007 171.3822 0008225 072.3810 287.8324 15.22710337009606 /EX
